User: anonymous   Login
Location: Unspecified
(0.0000°N, 0.0000°E)
Time: 21:43:34
(UTC+01:00)
Language:

Coronas F rocket - Orbit

View from above orbital plane
View from above orbital plane
View from above satellite
View from above satellite

Ground track
Ground track

The orbit data is extracted from the following two-line orbital elements,

1 26874U 01032B   14328.53267182  .00016885  00000-0  23512-3 0  8550
2 26874 082.4695 174.8697 0013095 177.6067 182.5253 15.56690276746209
Epoch (UTC): 24 November 2014 12:47:02
Eccentricity: 0.0013095
inclination: 82.4695°
perigee height: 388 km
apogee height: 406 km
right ascension of ascending node: 174.8697°
argument of perigee: 177.6067°
revolutions per day: 15.56690276
mean anomaly at epoch: 182.5253°
orbit number at epoch: 74620

The dashed part of the orbit path shows where the satellite is in the earth's shadow,  

DLR